Total_Precipitation_Accumulation
0.00 0.00 0.01 0.01 0.00 0.00 0.00 0.00 0.01 0.02 0.02 0.03 0.05 0.07 0.09 0.11 0.16 0.17 0.16 0.20 0.31 0.34 0.38 0.38 0.35 0.32 0.31 0.36 0.43 0.37 0.35 0.35 0.39 0.49 0.45 0.45 0.47 0.45 0.42 0.48 0.56 0.54 0.52 0.55 0.57 0.61 0.64 0.65 0.62 0.51 0.43 0.47 0.38 0.40 0.49 0.55 0.67 0.62 0.64 0.58 0.58 0.55 0.86 1.00 0.91 0.47 0.15 0.09 0.10 0.10 0.04 0.03 0.04 0.03 0.04 0.04 0.05 0.07 0.10 0.11 0.08 0.07 0.06 0.13 0.12
0.00 0.00 0.01 0.00 0.00 0.00 0.00 0.00 0.01 0.02 0.03 0.02 0.02 0.03 0.05 0.07 0.10 0.13 0.15 0.14 0.16 0.27 0.32 0.35 0.34 0.36 0.33 0.30 0.41 0.41 0.35 0.34 0.31 0.35 0.42 0.45 0.45 0.44 0.46 0.49 0.51 0.49 0.48 0.49 0.44 0.46 0.52 0.66 0.64 0.72 0.67 0.53 0.42 0.40 0.46 0.66 0.84 0.57 0.52 0.82 1.00 0.86 0.97 0.96 0.85 0.63 0.41 0.17 0.13 0.08 0.10 0.06 0.10 0.08 0.08 0.09 0.12 0.13 0.10 0.09 0.09 0.12 0.08 0.09 0.08
0.01 0.01 0.00 0.00 0.00 0.00 0.01 0.00 0.00 0.02 0.03 0.03 0.02 0.02 0.03 0.04 0.07 0.10 0.11 0.12 0.13 0.15 0.22 0.30 0.36 0.35 0.40 0.39 0.39 0.31 0.32 0.36 0.33 0.34 0.37 0.40 0.44 0.52 0.44 0.42 0.43 0.47 0.52 0.51 0.49 0.49 0.58 0.60 0.58 0.65 0.68 1.02 0.89 0.69 0.77 0.78 0.71 0.88 0.99 0.72 0.62 0.45 0.40 0.57 0.72 0.82 0.53 0.35 0.26 0.22 0.18 0.16 0.15 0.11 0.09 0.09 0.09 0.11 0.12 0.10 0.09 0.09 0.12 0.18 0.18
0.01 0.01 0.01 0.01 0.01 0.01 0.01 0.01 0.01 0.01 0.02 0.02 0.02 0.16 0.04 0.03 0.03 0.05 0.08 0.10 0.12 0.14 0.15 0.20 0.28 0.39 0.41 0.49 0.44 0.37 0.33 0.35 0.35 0.37 0.33 0.35 0.39 0.50 0.48 0.50 0.46 0.39 0.40 0.35 0.34 0.39 0.46 0.53 0.54 0.64 0.80 0.98 0.73 0.56 0.55 0.65 0.76 0.74 0.79 0.46 0.52 0.45 0.41 0.47 0.62 0.79 0.63 0.60 0.31 0.22 0.14 0.15 0.12 0.10 0.10 0.10 0.10 0.09 0.08 0.21 0.18 0.11 0.13 0.16 0.19
0.01 0.01 0.01 0.01 0.01 0.01 0.01 0.01 0.01 0.01 0.01 0.02 0.03 0.10 0.10 0.09 0.15 0.05 0.04 0.06 0.18 0.11 0.14 0.27 0.20 0.28 0.35 0.32 0.34 0.32 0.39 0.34 0.29 0.40 0.37 0.39 0.47 0.43 0.44 0.46 0.46 0.48 0.48 0.44 0.37 0.30 0.28 0.29 0.29 0.33 0.41 0.51 0.53 0.50 0.60 0.70 0.49 0.41 0.40 0.34 0.33 0.30 0.34 0.46 0.50 0.55 0.71 0.68 0.46 0.26 0.21 0.16 0.15 0.15 0.13 0.14 0.12 0.12 0.13 0.14 0.18 0.17 0.18 0.18 0.20
0.01 0.01 0.01 0.01 0.01 0.02 0.02 0.02 0.02 0.02 0.02 0.02 0.03 0.05 0.07 0.33 0.10 0.04 0.18 0.11 0.05 0.19 0.15 0.14 0.25 0.25 0.20 0.29 0.37 0.39 0.35 0.32 0.31 0.38 0.41 0.50 0.48 0.49 0.46 0.42 0.46 0.43 0.39 0.40 0.41 0.40 0.37 0.32 0.37 0.51 0.53 0.63 0.96 0.87 0.34 0.36 0.36 0.46 0.51 0.52 0.52 0.43 0.48 0.54 0.63 0.80 0.90 0.82 0.55 0.43 0.26 0.24 0.20 0.18 0.15 0.16 0.21 0.22 0.21 0.21 0.23 0.21 0.28 0.28 0.22
0.01 0.01 0.01 0.01 0.01 0.02 0.02 0.02 0.02 0.03 0.03 0.03 0.04 0.06 0.09 0.15 0.26 0.22 0.17 0.28 0.34 0.09 0.09 0.17 0.16 0.20 0.34 0.28 0.26 0.31 0.40 0.44 0.48 0.38 0.39 0.49 0.47 0.46 0.52 0.46 0.48 0.48 0.49 0.48 0.48 0.48 0.62 0.63 0.84 0.81 0.75 0.68 0.67 0.62 0.83 0.61 0.56 0.54 0.56 0.47 0.41 0.41 0.48 0.50 0.51 0.66 0.75 0.75 0.57 0.43 0.37 0.31 0.31 0.34 0.24 0.21 0.21 0.25 0.32 0.33 0.35 0.28 0.30 0.25 0.39
0.02 0.02 0.02 0.02 0.02 0.02 0.02 0.02 0.03 0.03 0.04 0.05 0.07 0.10 0.14 0.15 0.12 0.31 0.39 0.18 0.28 0.32 0.14 0.10 0.31 0.25 0.24 0.53 0.45 0.38 0.34 0.38 0.38 0.48 0.40 0.34 0.39 0.39 0.38 0.38 0.51 0.45 0.52 0.69 0.81 1.04 1.04 0.86 0.72 0.56 0.41 0.39 0.40 0.46 0.63 0.73 0.86 0.78 0.59 0.49 0.46 0.54 0.60 0.56 0.61 0.72 0.76 0.71 0.63 0.46 0.35 0.33 0.30 0.29 0.27 0.28 0.36 0.39 0.32 0.41 0.41 0.41 0.42 0.37 0.31
0.02 0.03 0.03 0.03 0.03 0.02 0.03 0.03 0.04 0.05 0.06 0.07 0.09 0.14 0.18 0.20 0.19 0.28 0.24 0.42 0.45 0.26 0.63 0.30 0.26 0.29 0.61 0.42 0.45 0.63 0.49 0.42 0.36 0.34 0.42 0.48 0.42 0.38 0.34 0.38 0.32 0.36 0.43 0.42 0.45 0.44 0.43 0.43 0.40 0.57 0.68 0.90 0.97 1.03 0.92 0.72 0.70 0.61 0.47 0.41 0.48 0.54 0.65 0.69 0.74 0.78 0.81 0.74 0.65 0.48 0.47 0.46 0.39 0.33 0.36 0.40 0.40 0.58 0.46 0.43 0.48 0.42 0.42 0.43 0.38
0.03 0.03 0.03 0.03 0.03 0.03 0.03 0.04 0.04 0.06 0.07 0.08 0.09 0.12 0.17 0.21 0.26 0.20 0.36 0.41 0.21 0.46 0.33 0.36 0.34 0.35 0.18 0.36 0.44 0.46 0.43 0.48 0.39 0.44 0.36 0.52 0.41 0.64 0.60 0.62 0.57 0.53 0.56 0.64 0.77 0.80 0.90 0.88 1.02 0.98 1.02 0.66 0.66 0.60 0.54 0.54 0.52 0.52 0.46 0.45 0.53 0.62 0.65 0.68 0.70 0.66 0.65 0.70 0.60 0.48 0.51 0.47 0.35 0.33 0.33 0.38 0.39 0.45 0.48 0.51 0.62 0.47 0.44 0.45 0.39
0.02 0.02 0.03 0.04 0.04 0.05 0.05 0.05 0.05 0.06 0.07 0.08 0.08 0.10 0.14 0.16 0.17 0.23 0.22 0.39 0.54 0.26 0.36 0.42 0.31 0.38 0.37 0.25 0.25 0.34 0.30 0.32 0.39 0.56 0.63 0.51 0.41 0.37 0.36 0.42 0.39 0.41 0.40 0.39 0.43 0.43 0.42 0.40 0.40 0.43 0.62 0.65 0.54 0.51 0.51 0.51 0.55 0.57 0.54 0.51 0.51 0.56 0.65 0.73 0.71 0.62 0.74 0.72 0.51 0.46 0.51 0.44 0.38 0.30 0.36 0.45 0.54 0.52 0.58 0.54 0.54 0.58 0.61 0.59 0.55
0.02 0.02 0.02 0.03 0.08 0.09 0.09 0.07 0.06 0.06 0.08 0.08 0.08 0.08 0.09 0.12 0.14 0.18 0.28 0.18 0.36 0.30 0.31 0.35 0.35 0.25 0.30 0.36 0.46 0.40 0.36 0.30 0.45 0.54 0.54 0.47 0.43 0.48 0.46 0.43 0.36 0.38 0.35 0.32 0.31 0.31 0.32 0.32 0.38 0.38 0.48 0.46 0.45 0.48 0.55 0.58 0.59 0.59 0.57 0.54 0.54 0.57 0.63 0.72 0.75 0.79 0.76 0.80 0.71 0.56 0.47 0.46 0.53 0.45 0.40 0.48 0.54 0.53 0.56 0.64 0.61 0.68 0.72 0.62 0.51
0.02 0.02 0.02 0.03 0.08 0.10 0.10 0.08 0.07 0.06 0.08 0.10 0.09 0.08 0.08 0.10 0.13 0.21 0.22 0.15 0.20 1.01 0.33 0.26 0.34 0.27 0.29 0.24 0.29 0.45 0.42 0.40 0.59 0.54 0.53 0.58 0.59 0.52 0.51 0.48 0.44 0.39 0.41 0.47 0.46 0.41 0.51 0.76 0.63 0.57 0.59 0.55 0.63 0.60 0.49 0.42 0.43 0.45 0.44 0.46 0.46 0.42 0.43 0.44 0.47 0.50 0.49 0.67 0.65 0.51 0.44 0.39 0.45 0.48 0.64 0.67 0.50 0.61 0.65 0.70 0.72 0.64 0.57 0.60 0.47
0.01 0.02 0.02 0.03 0.05 0.10 0.10 0.11 0.09 0.07 0.07 0.08 0.10 0.11 0.09 0.10 0.16 0.12 0.16 0.25 0.19 0.17 0.31 0.32 0.25 0.34 0.28 0.25 0.21 0.21 0.35 0.38 0.54 0.56 0.53 0.57 0.66 0.80 0.80 0.67 0.73 0.74 0.67 0.63 0.65 0.50 0.62 0.54 0.51 0.43 0.44 0.40 0.43 0.44 0.45 0.42 0.38 0.38 0.43 0.45 0.42 0.39 0.47 0.53 0.55 0.63 0.74 0.82 0.69 0.62 0.40 0.45 0.61 0.56 0.61 0.63 0.83 0.92 0.94 0.88 0.78 0.84 0.76 0.64 0.49
0.02 0.02 0.02 0.02 0.04 0.07 0.14 0.21 0.14 0.13 0.12 0.13 0.10 0.10 0.12 0.12 0.13 0.13 0.19 0.19 0.29 0.13 0.34 0.26 0.26 0.27 0.29 0.33 0.29 0.27 0.22 0.29 0.40 0.45 0.47 0.52 0.57 0.65 0.67 0.60 0.52 0.59 0.63 0.62 0.55 0.52 0.63 0.63 0.56 0.48 0.35 0.35 0.36 0.37 0.40 0.41 0.43 0.47 0.46 0.44 0.40 0.36 0.33 0.36 0.42 0.50 0.62 0.70 0.61 0.47 0.45 0.57 0.54 0.51 0.61 0.67 0.76 0.91 0.82 0.84 0.82 0.87 0.88 0.80 0.67
0.01 0.02 0.02 0.01 0.02 0.07 0.17 0.09 0.11 0.11 0.09 0.14 0.11 0.09 0.09 0.08 0.09 0.10 0.15 0.19 0.21 0.36 0.18 0.17 0.31 0.23 0.23 0.31 0.32 0.27 0.30 0.33 0.42 0.42 0.41 0.44 0.49 0.66 0.55 0.51 0.47 0.45 0.42 0.50 0.59 0.41 0.37 0.34 0.31 0.32 0.32 0.30 0.30 0.41 0.50 0.51 0.57 0.55 0.50 0.45 0.42 0.43 0.45 0.41 0.47 0.51 0.56 0.56 0.59 0.79 0.91 0.72 0.77 0.83 0.83 0.90 0.98 0.95 1.04 1.10 1.06 1.02 0.95 0.89 0.70
0.01 0.01 0.01 0.02 0.02 0.03 0.07 0.11 0.08 0.08 0.08 0.08 0.07 0.11 0.10 0.09 0.10 0.11 0.17 0.23 0.27 0.18 0.31 0.13 0.25 0.25 0.23 0.21 0.28 0.26 0.30 0.28 0.37 0.38 0.46 0.50 0.54 0.54 0.46 0.41 0.41 0.46 0.42 0.34 0.30 0.32 0.33 0.34 0.34 0.32 0.32 0.32 0.33 0.46 0.56 0.68 0.73 0.66 0.58 0.56 0.51 0.50 0.51 0.54 0.50 0.66 0.70 0.78 0.80 0.82 0.83 0.95 0.76 0.87 0.84 0.88 0.84 0.85 1.01 1.38 1.25 0.76 0.81 0.89 0.65
0.01 0.02 0.02 0.04 0.02 0.05 0.12 0.19 0.14 0.17 0.25 0.10 0.15 0.08 0.13 0.24 0.16 0.18 0.17 0.14 0.14 0.20 0.20 0.25 0.19 0.26 0.27 0.28 0.29 0.37 0.34 0.43 0.46 0.41 0.50 0.48 0.52 0.50 0.47 0.39 0.36 0.34 0.36 0.45 0.37 0.31 0.32 0.39 0.40 0.33 0.30 0.30 0.32 0.56 0.62 0.80 0.86 0.80 0.74 0.83 0.69 0.65 0.54 0.48 0.50 0.54 0.60 0.63 0.64 0.66 0.61 0.64 0.64 0.67 0.63 0.62 0.64 0.79 0.93 1.10 0.62 0.59 0.77 0.79 0.82
0.01 0.04 0.17 0.08 0.08 0.11 0.08 0.16 0.28 0.12 0.14 0.20 0.25 0.29 0.32 0.29 0.31 0.23 0.24 0.25 0.27 0.25 0.20 0.33 0.33 0.26 0.37 0.36 0.30 0.32 0.35 0.40 0.64 0.51 0.43 0.54 0.59 0.57 0.56 0.49 0.42 0.36 0.36 0.35 0.38 0.38 0.34 0.36 0.41 0.38 0.35 0.43 0.40 0.59 0.62 0.71 0.93 0.96 0.94 0.73 0.65 0.59 0.50 0.41 0.47 0.56 0.62 0.61 0.61 0.55 0.57 0.53 0.54 0.53 0.48 0.52 0.59 0.66 0.72 0.65 0.65 0.93 1.15 1.02 0.96
0.07 0.06 0.05 0.11 0.10 0.06 0.04 0.05 0.06 0.25 0.24 0.15 0.32 0.27 0.20 0.30 0.32 0.32 0.36 0.26 0.31 0.21 0.29 0.29 0.28 0.32 0.30 0.33 0.35 0.37 0.34 0.40 0.43 0.68 0.49 0.51 0.69 0.67 0.55 0.49 0.52 0.48 0.37 0.35 0.48 0.52 0.44 0.38 0.54 0.53 0.48 0.43 0.46 0.59 0.70 0.80 1.00 0.92 0.75 0.76 0.66 0.57 0.49 0.54 0.60 0.63 0.52 0.49 0.48 0.44 0.47 0.54 0.48 0.50 0.45 0.44 0.49 0.54 0.59 0.60 0.64 0.83 1.04 1.16 1.15
0.06 0.03 0.06 0.03 0.03 0.02 0.03 0.06 0.07 0.16 0.19 0.17 0.19 0.19 0.24 0.26 0.23 0.27 0.21 0.23 0.25 0.28 0.43 0.40 0.51 0.59 0.41 0.54 0.59 0.46 0.45 0.49 0.51 0.56 0.60 0.51 0.57 0.69 0.71 0.57 0.55 0.50 0.46 0.44 0.45 0.51 0.62 0.50 0.45 0.47 0.46 0.43 0.63 0.65 0.88 0.97 0.92 0.78 0.63 0.60 0.54 0.62 0.75 0.84 0.74 0.71 0.70 0.59 0.51 0.49 0.45 0.41 0.44 0.45 0.49 0.49 0.53 0.47 0.50 0.54 0.59 0.76 0.96 1.28 1.44
0.01 0.03 0.02 0.03 0.05 0.05 0.07 0.05 0.06 0.10 0.18 0.16 0.17 0.16 0.18 0.21 0.31 0.44 0.27 0.30 0.32 0.39 0.45 0.32 0.42 0.40 0.35 0.33 0.37 0.57 0.64 0.64 0.62 0.60 0.58 0.61 0.57 0.52 0.68 0.78 0.88 0.66 0.63 0.59 0.55 0.46 0.52 0.69 0.54 0.50 0.51 0.50 0.87 1.03 0.99 0.84 0.79 0.71 0.62 0.77 0.90 1.00 0.84 0.70 0.63 0.56 0.52 0.47 0.47 0.50 0.47 0.51 0.54 0.57 0.48 0.53 0.62 0.58 0.78 0.69 0.79 0.94 0.95 0.98 1.10
0.06 0.06 0.04 0.06 0.07 0.08 0.04 0.06 0.11 0.12 0.18 0.20 0.23 0.21 0.19 0.20 0.24 0.25 0.25 0.29 0.25 0.27 0.26 0.31 0.28 0.34 0.35 0.33 0.31 0.39 0.46 0.48 0.55 0.52 0.51 0.53 0.65 0.78 0.68 0.63 0.61 0.58 0.66 0.65 0.57 0.53 0.53 0.49 0.60 0.64 0.85 1.03 0.96 0.81 0.93 0.90 0.84 0.79 0.69 0.82 0.82 0.96 0.79 0.76 0.65 0.63 0.68 0.66 0.65 0.68 0.65 0.58 0.61 0.56 0.56 0.60 0.65 0.59 0.63 0.71 0.76 0.83 0.86 0.95 1.04
0.08 0.13 0.22 0.21 0.12 0.14 0.15 0.13 0.14 0.11 0.17 0.18 0.19 0.21 0.17 0.23 0.30 0.21 0.26 0.21 0.20 0.18 0.19 0.17 0.20 0.26 0.24 0.25 0.27 0.19 0.25 0.24 0.51 0.56 0.48 0.46 0.44 0.46 0.48 0.45 0.53 0.64 0.67 0.70 0.64 0.58 0.60 0.65 0.70 0.87 0.91 0.76 0.77 0.80 0.80 0.71 0.61 0.67 0.63 0.69 0.65 0.66 0.68 0.70 0.65 0.59 0.72 0.65 0.73 0.70 0.61 0.59 0.55 0.56 0.62 0.65 0.74 0.83 0.77 0.75 0.72 0.70 0.76 0.78 0.83
0.19 0.18 0.05 0.10 0.17 0.14 0.16 0.16 0.13 0.22 0.21 0.15 0.14 0.19 0.18 0.14 0.14 0.12 0.11 0.14 0.10 0.17 0.17 0.12 0.20 0.18 0.15 0.20 0.20 0.24 0.24 0.29 0.26 0.36 0.32 0.42 0.40 0.43 0.42 0.51 0.54 0.58 0.62 0.58 0.57 0.52 0.68 0.89 0.86 0.89 0.83 0.87 0.82 0.73 0.67 0.69 0.72 0.62 0.68 0.70 0.71 0.59 0.62 0.66 0.68 0.73 0.78 0.76 0.68 0.62 0.59 0.60 0.60 0.58 0.55 0.60 0.58 0.61 0.71 0.79 0.79 0.83 0.85 0.94 0.90
0.14 0.14 0.13 0.20 0.14 0.10 0.18 0.10 0.14 0.13 0.15 0.24 0.31 0.31 0.38 0.30 0.22 0.14 0.17 0.24 0.19 0.22 0.22 0.13 0.16 0.15 0.13 0.13 0.30 0.34 0.28 0.26 0.23 0.27 0.33 0.38 0.36 0.42 0.45 0.51 0.46 0.58 0.47 0.46 0.52 0.64 0.71 0.80 0.70 0.78 0.79 0.82 0.86 0.79 0.78 0.71 0.75 0.68 0.73 0.77 0.70 0.66 0.62 0.69 0.73 0.79 0.84 0.75 0.81 0.84 0.75 0.65 0.66 0.65 0.69 0.67 0.68 0.82 0.68 0.72 0.79 0.77 0.75 0.74 0.77
0.13 0.10 0.18 0.11 0.13 0.17 0.24 0.20 0.15 0.13 0.09 0.11 0.12 0.13 0.15 0.16 0.15 0.12 0.21 0.16 0.19 0.21 0.21 0.15 0.22 0.27 0.30 0.26 0.28 0.37 0.42 0.45 0.29 0.28 0.39 0.34 0.37 0.48 0.54 0.68 0.59 0.51 0.59 0.56 0.60 0.72 0.85 0.74 0.78 0.80 0.78 0.76 0.78 0.68 0.65 0.57 0.71 0.78 0.72 0.60 0.56 0.62 0.61 0.70 0.81 0.85 0.93 1.00 1.03 1.03 0.97 0.92 0.80 0.75 0.79 0.77 0.90 0.99 0.78 0.91 0.98 0.97 0.84 0.91 0.97
0.21 0.18 0.18 0.17 0.20 0.14 0.20 0.12 0.18 0.15 0.15 0.15 0.18 0.17 0.17 0.14 0.17 0.22 0.20 0.23 0.23 0.19 0.21 0.25 0.27 0.24 0.27 0.34 0.49 0.45 0.46 0.56 0.72 0.63 0.65 0.69 0.87 0.90 0.77 0.72 0.75 0.71 0.71 0.66 0.76 0.91 0.84 0.75 0.80 0.79 0.75 0.78 0.81 0.73 0.74 0.74 0.76 0.70 0.61 0.62 0.62 0.58 0.58 0.70 0.79 0.91 0.95 0.91 0.88 0.79 0.79 0.78 0.80 0.76 0.74 0.79 0.77 0.75 0.72 0.88 0.86 0.91 0.83 0.84 0.98
0.14 0.12 0.12 0.16 0.17 0.16 0.15 0.17 0.14 0.15 0.13 0.12 0.10 0.10 0.19 0.23 0.27 0.19 0.19 0.18 0.21 0.35 0.52 0.43 0.41 0.37 0.44 0.49 0.51 0.60 0.48 0.54 0.62 0.98 0.87 0.98 0.97 1.00 1.09 1.02 0.84 0.93 0.96 1.05 1.13 0.87 0.68 0.74 0.76 0.84 0.76 0.82 0.81 0.81 0.81 0.88 0.80 0.72 0.75 0.77 0.77 0.68 0.89 0.91 1.12 1.10 1.00 0.89 0.92 0.90 0.94 0.92 0.96 0.90 0.93 0.79 0.75 0.78 0.80 0.95 0.97 0.97 0.99 0.98 1.05
0.26 0.14 0.13 0.15 0.11 0.12 0.15 0.19 0.18 0.22 0.22 0.16 0.20 0.20 0.21 0.24 0.20 0.26 0.28 0.26 0.36 0.40 0.59 0.62 0.61 0.56 0.64 0.61 0.53 0.69 0.68 0.91 1.01 0.91 0.90 0.98 1.00 1.07 1.06 1.02 1.03 0.93 0.87 1.08 0.96 0.97 0.79 0.79 0.70 0.69 0.70 0.69 0.69 0.68 0.82 0.73 0.84 0.87 0.89 0.94 0.90 0.96 0.98 0.97 0.87 0.99 0.89 0.95 0.97 0.99 0.98 0.98 0.99 0.98 0.95 1.03 1.07 1.05 0.89 0.92 1.17 1.01 1.13 1.24 1.20
0.26 0.23 0.47 0.53 0.75 0.71 0.72 0.85 0.83 0.74 0.70 0.35 0.37 0.34 0.27 0.30 0.36 0.32 0.35 0.37 0.33 0.40 0.43 0.52 0.47 0.49 0.49 0.54 0.52 0.48 0.51 0.68 0.75 0.93 1.05 1.10 1.18 1.11 1.14 1.14 1.13 1.12 1.12 1.06 1.03 0.97 0.92 0.98 0.83 0.69 0.64 0.69 0.66 0.66 0.69 0.66 0.70 0.77 0.86 0.91 0.81 0.84 0.92 0.98 1.01 0.97 0.98 1.08 1.06 1.07 1.03 1.05 1.06 1.00 0.98 0.97 0.97 1.01 0.98 1.17 1.14 1.15 1.31 1.23 1.18
0.15 0.18 0.14 0.17 0.22 0.31 0.30 0.28 0.35 0.40 0.36 0.33 0.33 0.28 0.35 0.27 0.41 0.39 0.35 0.45 0.36 0.40 0.46 0.50 0.53 0.56 0.56 0.57 0.57 0.70 0.60 0.65 0.67 0.82 0.92 1.10 1.15 1.23 1.28 1.30 1.44 1.23 1.17 1.13 1.06 1.00 0.74 0.75 0.77 0.69 0.71 0.83 0.82 0.79 0.82 0.88 0.82 0.82 0.85 0.97 0.96 0.91 0.88 0.92 0.90 0.94 1.06 1.10 1.15 1.11 1.13 1.02 1.06 1.09 1.09 1.10 1.01 1.04 1.05 1.08 1.14 1.10 1.08 1.09 1.10
0.40 0.18 0.18 0.23 0.21 0.28 0.33 0.29 0.39 0.34 0.39 0.39 0.47 0.49 0.47 0.48 0.43 0.40 0.52 0.41 0.41 0.43 0.45 0.45 0.52 0.48 0.41 0.45 0.50 0.50 0.52 0.62 0.76 0.93 0.94 0.95 0.99 1.15 1.20 1.30 1.33 1.12 1.20 1.12 1.07 0.97 0.71 0.64 0.61 0.52 0.56 0.66 0.65 0.74 0.82 0.80 0.83 0.92 1.00 1.03 0.99 1.05 0.99 0.91 0.92 1.01 1.05 1.07 1.09 1.14 1.09 1.07 1.03 1.07 1.02 1.02 1.07 1.10 1.05 1.03 0.97 1.01 1.01 1.14 1.04
0.16 0.16 0.20 0.20 0.27 0.21 0.19 0.22 0.27 0.31 0.31 0.31 0.34 0.38 0.43 0.46 0.53 0.54 0.52 0.55 0.58 0.57 0.60 0.63 0.56 0.55 0.53 0.50 0.52 0.55 0.57 0.68 0.70 0.78 0.81 0.89 1.06 1.10 1.29 1.28 1.20 1.09 1.07 1.04 0.83 0.71 0.61 0.61 0.63 0.62 0.57 0.61 0.65 0.71 0.79 0.81 0.80 0.83 0.83 0.83 0.85 0.86 0.89 0.96 1.01 1.11 1.09 1.08 1.11 1.13 1.13 1.12 1.17 1.25 1.28 1.23 1.17 1.13 1.12 1.10 1.10 1.14 1.12 1.06 1.06
0.10 0.10 0.11 0.15 0.16 0.23 0.23 0.29 0.26 0.28 0.28 0.30 0.35 0.40 0.47 0.52 0.59 0.60 0.62 0.64 0.67 0.61 0.65 0.66 0.73 0.58 0.67 0.60 0.63 0.72 0.70 0.74 0.72 0.77 0.91 0.96 0.98 1.14 1.31 1.34 1.47 1.35 1.21 0.91 0.85 0.76 0.68 0.62 0.66 0.67 0.73 0.80 0.79 0.83 0.86 0.85 0.87 0.90 0.93 0.98 1.01 1.00 0.99 1.02 1.01 0.99 1.03 1.04 1.03 1.07 1.10 1.11 1.10 1.12 1.16 1.21 1.23 1.25 1.19 1.14 1.05 1.02 1.05 1.08 1.06
0.14 0.17 0.14 0.18 0.17 0.23 0.21 0.22 0.25 0.34 0.34 0.39 0.36 0.36 0.38 0.39 0.40 0.51 0.48 0.56 0.60 0.62 0.65 0.74 0.80 0.74 0.76 0.75 0.74 0.86 0.79 0.79 0.83 0.93 0.96 1.01 1.14 1.27 1.56 1.46 1.19 1.05 0.96 0.79 0.68 0.59 0.56 0.63 0.67 0.76 0.78 0.82 0.88 0.89 0.92 0.96 0.95 0.96 0.96 1.01 1.01 1.06 0.99 0.97 0.97 1.00 0.98 0.99 1.02 1.03 1.07 1.05 1.06 1.07 1.10 1.06 1.03 1.02 1.05 1.04 1.05 1.07 1.05 1.05 1.02
0.17 0.19 0.16 0.17 0.21 0.19 0.22 0.22 0.25 0.23 0.28 0.28 0.31 0.33 0.40 0.41 0.39 0.43 0.48 0.49 0.42 0.45 0.47 0.54 0.61 0.68 0.75 0.80 0.96 0.96 0.93 0.89 0.92 0.93 0.95 0.98 1.06 1.12 1.14 1.04 0.96 0.87 0.79 0.73 0.68 0.66 0.73 0.72 0.74 0.74 0.77 0.88 0.90 0.93 0.95 0.93 0.93 0.95 0.97 1.00 1.02 1.03 1.00 0.97 0.96 0.95 0.98 1.04 1.04 1.01 1.02 1.04 1.05 1.07 1.11 1.16 1.09 1.04 0.97 0.98 0.99 1.04 1.05 1.12 1.17
0.11 0.13 0.18 0.21 0.22 0.25 0.24 0.26 0.24 0.24 0.22 0.29 0.27 0.31 0.32 0.35 0.36 0.44 0.42 0.46 0.55 0.51 0.54 0.59 0.70 0.57 0.62 0.75 0.66 0.81 0.93 0.95 0.98 1.09 1.14 1.21 1.30 1.25 1.10 0.96 0.90 0.84 0.77 0.69 0.71 0.73 0.75 0.70 0.71 0.79 0.86 0.93 1.01 1.02 1.06 1.02 1.01 1.03 1.04 1.05 1.04 1.03 0.99 1.01 1.01 1.01 1.01 1.02 1.04 1.04 1.07 1.07 1.07 1.09 1.12 1.16 1.16 1.18 1.10 1.07 1.08 1.11 1.07 1.04 1.07
0.15 0.14 0.16 0.18 0.17 0.24 0.25 0.23 0.25 0.28 0.30 0.28 0.33 0.36 0.38 0.36 0.37 0.40 0.39 0.42 0.43 0.45 0.50 0.55 0.53 0.58 0.62 0.62 0.71 0.72 0.81 0.94 1.02 1.09 1.02 0.95 0.91 0.92 0.92 0.89 0.89 0.89 0.85 0.80 0.76 0.73 0.73 0.73 0.75 0.82 0.91 0.96 1.01 1.06 1.09 1.10 1.10 1.11 1.07 1.09 1.10 1.13 1.18 1.19 1.18 1.12 1.10 1.08 1.06 1.02 1.07 1.06 1.09 1.11 1.10 1.14 1.12 1.08 1.08 1.09 1.08 1.12 1.09 1.08 1.03
0.19 0.18 0.21 0.20 0.27 0.21 0.28 0.28 0.26 0.35 0.35 0.29 0.30 0.32 0.34 0.38 0.42 0.46 0.42 0.48 0.45 0.46 0.52 0.49 0.47 0.48 0.50 0.51 0.62 0.72 0.82 0.80 0.74 0.68 0.69 0.69 0.71 0.70 0.71 0.79 0.79 0.77 0.77 0.75 0.75 0.76 0.81 0.83 0.89 0.95 0.96 0.98 1.01 1.05 1.05 1.06 1.08 1.09 1.10 1.10 1.13 1.13 1.07 1.05 1.04 1.04 1.04 1.02 1.04 1.04 1.07 1.07 1.09 1.12 1.15 1.11 1.11 1.05 1.06 1.06 1.04 1.07 1.04 1.05 1.02
0.25 0.17 0.19 0.22 0.27 0.33 0.29 0.30 0.32 0.34 0.36 0.39 0.43 0.44 0.47 0.52 0.49 0.47 0.59 0.52 0.51 0.48 0.45 0.45 0.46 0.43 0.47 0.48 0.54 0.62 0.75 0.75 0.72 0.66 0.68 0.67 0.67 0.70 0.74 0.75 0.76 0.74 0.70 0.75 0.76 0.77 0.87 0.84 0.87 0.93 0.93 0.96 0.97 1.00 1.00 1.02 1.02 1.04 1.02 1.01 1.00 0.99 0.96 0.95 0.95 0.98 0.98 0.99 0.99 1.01 1.01 1.01 1.06 1.12 1.16 1.08 1.07 1.06 1.02 1.01 1.05 1.03 1.03 1.02 1.02
0.24 0.19 0.26 0.22 0.21 0.26 0.31 0.37 0.40 0.41 0.49 0.46 0.50 0.49 0.54 0.53 0.52 0.53 0.54 0.59 0.51 0.50 0.49 0.45 0.44 0.46 0.46 0.49 0.52 0.56 0.63 0.63 0.61 0.62 0.62 0.63 0.65 0.69 0.73 0.76 0.77 0.81 0.86 0.86 0.89 0.88 0.92 0.89 0.88 0.89 0.95 0.94 0.96 0.98 0.99 0.99 0.96 0.96 0.97 0.99 1.01 1.03 1.01 0.98 0.98 1.02 1.03 1.09 1.00 1.03 1.03 1.03 1.06 1.05 1.02 1.01 1.04 1.05 1.06 1.04 1.05 1.07 1.07 1.05 1.05
0.30 0.38 0.43 0.37 0.38 0.40 0.38 0.44 0.45 0.48 0.50 0.48 0.53 0.51 0.53 0.54 0.57 0.55 0.58 0.53 0.53 0.52 0.49 0.47 0.48 0.50 0.51 0.54 0.53 0.56 0.62 0.59 0.61 0.60 0.61 0.63 0.66 0.68 0.71 0.74 0.74 0.76 0.78 0.80 0.79 0.82 0.83 0.86 0.87 0.88 0.90 0.94 0.94 0.96 0.98 0.97 1.01 0.98 0.98 0.99 0.98 0.96 0.96 0.96 0.96 0.97 0.98 1.00 0.99 0.97 0.99 1.01 1.03 1.07 1.04 1.02 1.00 0.99 0.99 1.01 1.02 1.01 1.00 1.00 1.03
0.35 0.39 0.38 0.32 0.42 0.42 0.47 0.51 0.58 0.59 0.56 0.58 0.61 0.59 0.63 0.66 0.71 0.66 0.64 0.62 0.58 0.53 0.54 0.54 0.54 0.56 0.61 0.63 0.62 0.67 0.67 0.63 0.62 0.64 0.66 0.67 0.70 0.73 0.74 0.75 0.75 0.77 0.78 0.76 0.75 0.77 0.80 0.84 0.87 0.85 0.86 0.91 0.90 0.89 0.91 0.93 0.99 1.01 0.97 0.98 0.96 0.94 0.94 0.93 0.95 0.97 1.00 1.04 1.02 1.01 1.01 1.01 1.02 1.01 1.00 0.96 0.96 0.96 0.95 0.94 0.94 0.94 0.94 0.94 0.93
0.35 0.34 0.36 0.36 0.41 0.46 0.44 0.47 0.48 0.49 0.50 0.56 0.58 0.59 0.59 0.65 0.65 0.66 0.64 0.66 0.64 0.64 0.60 0.58 0.57 0.62 0.64 0.63 0.65 0.70 0.66 0.61 0.60 0.62 0.64 0.65 0.67 0.68 0.69 0.71 0.74 0.77 0.79 0.79 0.79 0.79 0.81 0.82 0.83 0.80 0.81 0.80 0.81 0.85 0.89 0.92 0.94 0.95 0.94 0.95 0.96 0.95 0.93 0.92 0.93 0.93 0.95 0.99 1.00 1.01 0.99 0.99 0.99 0.96 0.96 0.93 0.91 0.92 0.94 0.88 0.88 0.88 0.90 0.89 0.90
0.38 0.38 0.41 0.44 0.46 0.49 0.52 0.53 0.48 0.51 0.55 0.57 0.57 0.59 0.58 0.57 0.57 0.59 0.59 0.61 0.61 0.62 0.63 0.62 0.64 0.61 0.60 0.60 0.60 0.58 0.58 0.61 0.62 0.64 0.66 0.67 0.69 0.73 0.71 0.73 0.76 0.75 0.77 0.76 0.75 0.74 0.75 0.76 0.78 0.76 0.76 0.79 0.77 0.81 0.81 0.82 0.82 0.84 0.85 0.89 0.91 0.91 0.89 0.90 0.91 0.95 0.98 1.00 1.01 0.99 0.96 0.94 0.91 0.89 0.88 0.91 0.90 0.88 0.88 0.85 0.84 0.84 0.85 0.86 0.85
0.39 0.44 0.46 0.50 0.48 0.52 0.49 0.50 0.53 0.56 0.54 0.54 0.56 0.55 0.54 0.58 0.59 0.61 0.61 0.65 0.71 0.67 0.65 0.64 0.63 0.69 0.65 0.61 0.60 0.60 0.61 0.62 0.69 0.66 0.70 0.73 0.72 0.74 0.75 0.79 0.77 0.75 0.74 0.72 0.71 0.71 0.74 0.74 0.75 0.76 0.78 0.76 0.76 0.75 0.75 0.76 0.78 0.79 0.81 0.84 0.88 0.89 0.90 0.90 0.92 0.94 0.98 0.97 0.97 0.99 0.98 0.98 0.96 0.95 0.93 0.92 0.95 0.93 0.91 0.90 0.90 0.93 0.92 0.91 0.90
0.41 0.40 0.43 0.46 0.47 0.45 0.47 0.50 0.49 0.50 0.53 0.54 0.54 0.56 0.57 0.60 0.64 0.60 0.63 0.64 0.65 0.69 0.67 0.68 0.67 0.65 0.71 0.78 0.71 0.70 0.70 0.75 0.68 0.67 0.68 0.69 0.71 0.70 0.72 0.71 0.73 0.72 0.68 0.67 0.68 0.68 0.69 0.70 0.71 0.77 0.72 0.70 0.70 0.70 0.77 0.71 0.72 0.74 0.75 0.77 0.79 0.80 0.81 0.83 0.88 0.90 0.93 0.96 0.99 1.02 1.03 1.03 1.00 0.95 0.91 0.90 0.90 0.89 0.93 0.91 0.88 0.88 0.89 0.91 0.91
0.45 0.42 0.42 0.47 0.45 0.51 0.52 0.48 0.53 0.51 0.52 0.61 0.70 0.54 0.56 0.54 0.57 0.62 0.65 0.71 0.68 0.68 0.70 0.63 0.67 0.71 0.66 0.75 0.73 0.79 0.76 0.75 0.73 0.77 0.71 0.71 0.70 0.72 0.69 0.68 0.66 0.66 0.66 0.65 0.64 0.65 0.67 0.67 0.67 0.63 0.64 0.67 0.65 0.69 0.68 0.67 0.70 0.72 0.74 0.74 0.73 0.72 0.77 0.84 0.90 0.94 0.92 0.89 0.89 0.91 0.93 0.95 0.95 0.92 0.88 0.86 0.85 0.83 0.84 0.82 0.84 0.86 0.89 0.90 0.91
0.50 0.47 0.58 0.50 0.49 0.59 0.46 0.49 0.46 0.50 0.56 0.52 0.52 0.53 0.51 0.51 0.52 0.55 0.59 0.57 0.60 0.60 0.69 0.68 0.65 0.68 0.73 0.70 0.71 0.73 0.71 0.76 0.72 0.73 0.74 0.72 0.73 0.74 0.72 0.71 0.71 0.70 0.67 0.66 0.67 0.68 0.67 0.66 0.66 0.67 0.63 0.62 0.63 0.64 0.68 0.65 0.65 0.70 0.69 0.73 0.70 0.72 0.76 0.82 0.82 0.82 0.82 0.83 0.83 0.82 0.83 0.86 0.87 0.86 0.84 0.82 0.81 0.83 0.85 0.86 0.87 0.89 0.91 0.91 0.90
0.47 0.50 0.51 0.52 0.56 0.54 0.55 0.58 0.57 0.54 0.54 0.58 0.59 0.57 0.61 0.57 0.53 0.53 0.54 0.59 0.58 0.57 0.61 0.67 0.64 0.66 0.73 0.72 0.70 0.69 0.73 0.73 0.72 0.72 0.70 0.73 0.76 0.76 0.78 0.80 0.79 0.78 0.76 0.73 0.71 0.68 0.69 0.69 0.65 0.63 0.64 0.62 0.61 0.62 0.62 0.62 0.65 0.64 0.66 0.70 0.73 0.74 0.75 0.78 0.80 0.77 0.75 0.76 0.79 0.79 0.82 0.82 0.83 0.83 0.81 0.80 0.80 0.83 0.85 0.87 0.90 0.91 0.91 0.90 0.89